[[{"header":{"parameterUnit":"m.s-1","parameterCategory":2,"la1":30.2991,"la2":30.254,"lo1":-89.0895,"lo2":-89.0444,"dy":0.0017,"dx":0.0017,"nx":28,"ny":28,"refTime":"2024-05-15T03:00:00:Z","depth":"0","parameterNumber":2,"parameterNumberName":"U-component_of_CURRENTS"},"data":[0,0,0,0,0,0,0,0,0,0,0,0,0,0,0,0,0,0,0,0,0,0,0,0,0,0,0,0,0,0,0,0,0,0,0,0,0,0,0,0,0,0,0,0,0,0,0,0,0,0,0,0,0,0,0,0,0,0,0.2911,0.2911,0,0.2888,0.2887,0.2886,0.2838,0.2838,0.2838,0.2838,0.2782,0.278,0.2779,0,0,0,0,0,0,0,0,0,0,0,0,0,0.2837,0.2838,0.2911,0.2911,0.2912,0.2888,0.2887,0.2886,0.2838,0.2838,0.2838,0.2838,0.2782,0.278,0.2779,0,0,0,0,0,0,0,0,0,0,0,0,0,0.2839,0.2838,0.2911,0.2892,0.289,0.2889,0.2887,0.2886,0.2839,0.2838,0.2838,0.2838,0.2783,0.2781,0.2779,0.2771,0,0,0.2772,0.2771,0,0,0,0,0,0,0,0,0.2839,0.284,0.2894,0.2893,0.2892,0.2874,0.2841,0.2849,0.2839,0.2849,0.2838,0.2838,0.2815,0.281,0.2795,0.2768,0.2766,0.2772,0.2771,0.277,0.2769,0,0,0,0,0,0,0,0.2839,0.2841,0.2893,0.2895,0.2893,0.2859,0.2859,0.2841,0.2826,0.2848,0.2847,0.2858,0.2813,0.2797,0.2793,0.2765,0.2772,0.277,0.2769,0.2768,0.2716,0.2716,0,0,0,0,0,0,0.2864,0.2841,0.2894,0.2893,0.2874,0.2862,0.2861,0.2872,0.2827,0.2823,0.2859,0.2856,0.28,0.2795,0.2791,0.2759,0.277,0.2768,0.2767,0.2716,0.2716,0.2716,0,0,0,0,0,0,0.2862,0.2869,0.2895,0.2873,0.2875,0.2865,0.2877,0.2872,0.2863,0.2837,0.283,0.2857,0.28,0.2794,0.2782,0.2758,0.2767,0.2765,0.2717,0.2716,0.2716,0.2709,0,0,0,0,0,0,0.286,0.2868,0.2883,0.2875,0.2878,0.29,0.2878,0.2872,0.2875,0.2871,0.2833,0.2827,0.2799,0.2786,0.278,0.2755,0.2764,0.2717,0.2716,0.2716,0.271,0.2709,0.2708,0,0,0,0,0,0.2858,0.2868,0.2884,0.2891,0.29,0.2901,0.2898,0.2883,0.2875,0.2872,0.2849,0.2829,0.2779,0.2784,0.2778,0.2752,0.2717,0.2716,0.2716,0.271,0.2709,0.2708,0,0,0,0,0,0,0.2822,0.2866,0.2882,0.2901,0.2912,0.2896,0.2891,0.2891,0.2869,0.2866,0.2834,0.2826,0.2806,0.2789,0.2795,0.2737,0.2741,0.274,0.2739,0.2738,0.2737,0.2701,0.2762,0,0,0,0,0,0.2833,0.2861,0.2888,0.29,0.2909,0.2906,0.2905,0.2904,0.289,0.288,0.2855,0.2826,0.2798,0.2779,0.2759,0.2731,0.2704,0.2709,0.2708,0.2707,0.2675,0.2591,0.2578,0.2715,0.2715,0.2715,0,0,0.2813,0.285,0.2858,0.2898,0.2897,0.2892,0.2901,0.2906,0.2894,0.2878,0.2844,0.2831,0.2796,0.2761,0.2748,0.2742,0.2673,0.2707,0.2706,0.2673,0.2589,0.2575,0.2563,0.2714,0.2715,0.2715,0,0,0.2779,0.283,0.2833,0.2857,0.2889,0.2889,0.2899,0.2899,0.2892,0.2877,0.2857,0.2822,0.2793,0.2742,0.2716,0.2699,0.2681,0.2711,0.266,0.258,0.2567,0.2555,0.2578,0.2568,0.2697,0.2697,0.2697,0,0.2747,0.2766,0.2828,0.2841,0.284,0.2888,0.2864,0.2876,0.2871,0.2824,0.2866,0.2758,0.2764,0.2661,0.268,0.2689,0.2683,0.2667,0.2576,0.2563,0.255,0.2576,0.2565,0.2697,0.2697,0.2697,0.2697,0,0.271,0.2732,0.2732,0.2765,0.2778,0.2772,0.2808,0.2794,0.2797,0.2777,0.2703,0.2705,0.2621,0.2638,0.2667,0.2575,0.2619,0.2594,0.2573,0.2535,0.2567,0.2556,0.2696,0.2696,0.2697,0.2697,0,0,0.2584,0.2682,0.2675,0.2662,0.2736,0.271,0.2712,0.2664,0.2598,0.2616,0.2514,0.2507,0.25,0.2474,0.2495,0.2454,0.2433,0.2507,0.2503,0.2522,0.2333,0.2342,0.2332,0.2392,0.2388,0.2385,0.2418,0,0.2509,0.2504,0.258,0.2529,0.251,0.2561,0.2535,0.2513,0.2506,0.2439,0.2426,0.2372,0.2445,0.2424,0.239,0.2431,0.239,0.2431,0.2371,0.2371,0.2372,0.2311,0.2252,0.227,0.2406,0.2404,0.2403,0,0.2412,0.2429,0.2383,0.2374,0.2362,0.2343,0.2253,0.2254,0.2214,0.2212,0.2158,0.2182,0.2168,0.2234,0.2219,0.2251,0.2283,0.231,0.231,0.2293,0.2352,0.2314,0.2243,0.2232,0.2385,0.2386,0.2388,0,0.2235,0.2257,0.2201,0.2211,0.2232,0.2177,0.2173,0.214,0.2128,0.2083,0.2077,0.2022,0.2059,0.2037,0.2173,0.2183,0.2173,0.2172,0.2189,0.2196,0.2114,0.2117,0.2,0.2085,0.2084,0.2084,0.2084,0,0.2104,0.2041,0.2107,0.2073,0.1974,0.2036,0.1932,0.1924,0.1933,0.1911,0.1964,0.1961,0.2014,0.2053,0.211,0.2151,0.2112,0.2157,0.2165,0.2123,0.2127,0.2088,0.2084,0.2086,0.2085,0.2085,0.2085,0,0.1906,0.1961,0.1891,0.1901,0.1899,0.1825,0.1859,0.1806,0.1843,0.1837,0.1846,0.1932,0.1995,0.2057,0.2079,0.2101,0.2055,0.2116,0.2131,0.2136,0.2102,0.2101,0.187,0.1822,0.21,0.21,0.21,0,0.1794,0.1755,0.1761,0.1753,0.1759,0.1711,0.1702,0.1745,0.175,0.1823,0.1829,0.1906,0.1961,0.2035,0.206,0.2098,0.2054,0.2057,0.2011,0.2061,0.2065,0.1979,0.195,0.1954,0.1953,0.1952,0.1951,0,0.1614,0.163,0.1614,0.1611,0.1599,0.1579,0.1593,0.1593,0.1669,0.17,0.1771,0.1818,0.1922,0.1951,0.2023,0.203,0.1957,0.2033,0.2025,0.187,0.1818,0.1793,0.2067,0.1941,0.1942,0.1943,0.1943,0.1944,0.1498,0.1465,0.1499,0.1471,0.1474,0.1473,0.144,0.1501,0.1522,0.1589,0.1686,0.1755,0.1861,0.1948,0.1945,0.1924,0.1882,0.1882,0.187,0.1776,0.1702,0.2004,0.1913,0.1914,0.1914,0.1915,0.1915,0,0.1393,0.1401,0.1377,0.1369,0.1341,0.1375,0.1388,0.1377,0.1402,0.1503,0.157,0.1695,0.1744,0.1811,0.1842,0.179,0.1686,0.1751,0.1608,0.1583,0.1804,0.1773,0.1716,0.1716,0.1716,0.1716,0.1716,0.1716,0.1357,0.1326,0.1322,0.1262,0.125,0.1208,0.1204,0.122,0.1275,0.1354,0.1429,0.1522,0.1677,0.1748,0.1731,0.1694,0.1587,0.1492,0.1496,0.1686,0.1698,0.1708,0.1676,0.16,0.1599,0.1208,0.1206,0.1204]},{"header":{"parameterUnit":"m.s-1","parameterCategory":2,"la1":30.2991,"la2":30.254,"lo1":-89.0895,"lo2":-89.0444,"dy":0.0017,"dx":0.0017,"nx":28,"ny":28,"refTime":"2024-05-15T03:00:00:Z","depth":"0","parameterNumber":3,"parameterNumberName":"V-component_of_CURRENTS"},"data":[0,0,0,0,0,0,0,0,0,0,0,0,0,0,0,0,0,0,0,0,0,0,0,0,0,0,0,0,0,0,0,0,0,0,0,0,0,0,0,0,0,0,0,0,0,0,0,0,0,0,0,0,0,0,0,0,0,0,-0.0389,-0.0388,0,-0.0341,-0.0341,-0.034,-0.0299,-0.0299,-0.0299,-0.0298,-0.0257,-0.0256,-0.0256,0,0,0,0,0,0,0,0,0,0,0,0,0,-0.042,-0.0419,-0.0389,-0.0388,-0.0388,-0.0341,-0.0341,-0.034,-0.0299,-0.0299,-0.0299,-0.0298,-0.0257,-0.0256,-0.0255,0,0,0,0,0,0,0,0,0,0,0,0,0,-0.0391,-0.0419,-0.0389,-0.0363,-0.0361,-0.0341,-0.034,-0.034,-0.03,-0.0299,-0.0299,-0.0298,-0.0258,-0.0257,-0.0255,-0.0257,0,0,-0.0252,-0.0251,0,0,0,0,0,0,0,0,-0.0393,-0.039,-0.0368,-0.0365,-0.0362,-0.0327,-0.0336,-0.0313,-0.03,-0.0321,-0.0298,-0.0298,-0.0282,-0.0279,-0.0269,-0.0255,-0.0253,-0.0252,-0.0251,-0.025,-0.025,0,0,0,0,0,0,0,-0.0395,-0.0392,-0.0368,-0.0367,-0.0364,-0.0346,-0.0341,-0.0331,-0.0304,-0.0319,-0.0317,-0.0314,-0.0281,-0.027,-0.0268,-0.0253,-0.0252,-0.025,-0.025,-0.0249,-0.0213,-0.0213,0,0,0,0,0,0,-0.0406,-0.0394,-0.037,-0.0367,-0.0378,-0.0346,-0.0341,-0.0338,-0.0304,-0.0299,-0.0314,-0.0312,-0.0273,-0.0269,-0.0266,-0.0228,-0.025,-0.0249,-0.0248,-0.0213,-0.0213,-0.0213,0,0,0,0,0,0,-0.0407,-0.0404,-0.0372,-0.0381,-0.0375,-0.0346,-0.0343,-0.0337,-0.0327,-0.03,-0.0295,-0.0311,-0.0272,-0.0268,-0.0254,-0.0228,-0.0249,-0.0247,-0.0214,-0.0213,-0.0213,-0.0177,0,0,0,0,0,0,-0.0408,-0.0405,-0.0411,-0.0381,-0.0375,-0.036,-0.0343,-0.0336,-0.0327,-0.0324,-0.0296,-0.0291,-0.0271,-0.0256,-0.0252,-0.0227,-0.0247,-0.0214,-0.0213,-0.0213,-0.0179,-0.0176,-0.0173,0,0,0,0,0,-0.0409,-0.0408,-0.0411,-0.0409,-0.0383,-0.036,-0.0355,-0.0331,-0.0328,-0.0322,-0.0303,-0.0292,-0.025,-0.0255,-0.0251,-0.0224,-0.0214,-0.0214,-0.0213,-0.018,-0.0176,-0.0173,0,0,0,0,0,0,-0.0418,-0.0404,-0.0406,-0.0401,-0.0386,-0.0353,-0.0345,-0.0337,-0.0318,-0.0314,-0.0293,-0.0286,-0.0262,-0.0258,-0.0264,-0.0215,-0.0229,-0.0228,-0.0206,-0.0202,-0.0199,-0.0166,-0.0246,0,0,0,0,0,-0.0428,-0.0426,-0.041,-0.0406,-0.0399,-0.0378,-0.0368,-0.0354,-0.0332,-0.0323,-0.0304,-0.0283,-0.0258,-0.0243,-0.0227,-0.0205,-0.0205,-0.0187,-0.0184,-0.0182,-0.0153,-0.0155,-0.015,-0.0211,-0.0211,-0.0211,0,0,-0.0425,-0.0423,-0.0418,-0.0409,-0.0393,-0.036,-0.0369,-0.0352,-0.0316,-0.0323,-0.0277,-0.0277,-0.0253,-0.0219,-0.0208,-0.0211,-0.0167,-0.0181,-0.0179,-0.0151,-0.0154,-0.0148,-0.0143,-0.0211,-0.0211,-0.0211,0,0,-0.04,-0.0421,-0.0399,-0.0391,-0.0377,-0.0359,-0.0357,-0.0331,-0.0314,-0.0288,-0.0273,-0.0258,-0.0231,-0.0195,-0.0175,-0.0152,-0.0157,-0.0157,-0.0106,-0.0109,-0.0103,-0.0098,-0.01,-0.0095,-0.015,-0.015,-0.015,0,-0.0394,-0.0364,-0.0389,-0.0364,-0.0337,-0.0355,-0.0304,-0.0295,-0.0267,-0.0241,-0.0269,-0.0214,-0.0207,-0.0138,-0.0126,-0.014,-0.015,-0.0118,-0.0104,-0.0099,-0.0094,-0.0097,-0.0092,-0.0148,-0.0148,-0.0149,-0.0149,0,-0.0337,-0.032,-0.0306,-0.0273,-0.0259,-0.0225,-0.0213,-0.0198,-0.0194,-0.0177,-0.0138,-0.0144,-0.0105,-0.0108,-0.0105,-0.0059,-0.0079,-0.0106,-0.0109,-0.0086,-0.0091,-0.0086,-0.0146,-0.0146,-0.0147,-0.0147,0,0,-0.0273,-0.0263,-0.0251,-0.0221,-0.0203,-0.0175,-0.0132,-0.0077,-0.004,-0.0049,0.0005,0.0027,0.0001,0.002,0.0008,0.001,0.002,-0.003,-0.0031,-0.0024,0.0011,-0.0001,0.0002,-0.0013,-0.0012,-0.0011,-0.0008,0,-0.0198,-0.0134,-0.0142,-0.0062,-0.0019,-0.0028,0.0016,0.0044,0.0051,0.0081,0.0069,0.0095,0.0055,0.0058,0.0056,0.003,0.0034,0.0023,-0.0017,-0.0017,-0.0025,0.0008,0.0025,0.0029,-0.0004,-0.0003,-0.0003,0,-0.0109,-0.0078,0.0008,0.0051,0.0071,0.011,0.0179,0.0209,0.0229,0.0227,0.0234,0.0202,0.0218,0.0152,0.0137,0.0125,0.0084,0.0052,0.005,0.0039,-0.002,0.0002,0.0038,-0.0013,0.0003,0.0003,0.0002,0,-0.0023,0.0037,0.0112,0.0128,0.0167,0.0211,0.0237,0.0265,0.0295,0.0309,0.0318,0.0311,0.0301,0.0252,0.0177,0.0154,0.0141,0.0096,0.0054,0.0052,0.0064,0.0061,0.0058,0.0093,0.0093,0.0093,0.0093,0,0.0073,0.0134,0.0153,0.0193,0.0276,0.0277,0.0356,0.037,0.0393,0.0438,0.0389,0.0411,0.032,0.0288,0.0214,0.0155,0.0168,0.0088,0.0062,0.0074,0.0072,0.0025,-0.0024,0.0093,0.0093,0.0093,0.0093,0,0.0151,0.0171,0.0242,0.0292,0.0312,0.0363,0.0411,0.0455,0.0468,0.052,0.0522,0.0493,0.0452,0.0362,0.0285,0.0211,0.0118,0.0121,0.0142,0.0119,0.0025,-0.0022,-0.0032,-0.0056,0.0082,0.0082,0.0082,0,0.0199,0.0241,0.0297,0.0333,0.0358,0.0423,0.0464,0.0491,0.0535,0.0577,0.061,0.0579,0.0576,0.0457,0.0319,0.0204,0.0132,0.0133,0.01,0.0049,-0.0024,-0.0046,-0.0067,0.0123,0.0123,0.0123,0.0123,0,0.0275,0.0282,0.0328,0.0391,0.0445,0.0506,0.057,0.0614,0.0654,0.0697,0.0748,0.0747,0.0638,0.053,0.036,0.0265,0.0102,0.0133,0.0079,0.0022,0.0001,-0.0044,0.0087,0.0125,0.0125,0.0125,0.0124,0.0124,0.0315,0.0346,0.0388,0.0451,0.0511,0.0586,0.0641,0.0708,0.0783,0.0862,0.0855,0.0888,0.0732,0.0504,0.0357,0.0126,0.0115,0.0061,0.0012,-0.0001,-0.0029,0.011,0.0113,0.0113,0.0113,0.0112,0.0112,0,0.0359,0.0389,0.0446,0.0519,0.0584,0.0608,0.0709,0.0768,0.086,0.0948,0.0995,0.0975,0.0758,0.0535,0.0218,0.0048,-0.0014,-0.0043,-0.0065,-0.008,0.005,0.0047,0.0037,0.0037,0.0037,0.0037,0.0038,0.0038,0.0385,0.0437,0.046,0.0568,0.0619,0.0712,0.0769,0.0859,0.0945,0.1073,0.1136,0.1174,0.106,0.0444,0.0059,-0.0054,-0.0163,-0.0188,-0.0245,-0.016,-0.0154,-0.0148,-0.016,-0.0212,-0.0213,-0.0332,-0.0333,-0.0335]}],[{"header":{"parameterUnit":"m.s-1","parameterCategory":2,"la1":30.2991,"la2":30.254,"lo1":-89.0895,"lo2":-89.0444,"dy":0.0017,"dx":0.0017,"nx":28,"ny":28,"refTime":"2024-05-15T03:00:00:Z","depth":"2","parameterNumber":2,"parameterNumberName":"U-component_of_CURRENTS"},"data":[0,0,0,0,0,0,0,0,0,0,0,0,0,0,0,0,0,0,0,0,0,0,0,0,0,0,0,0,0,0,0,0,0,0,0,0,0,0,0,0,0,0,0,0,0,0,0,0,0,0,0,0,0,0,0,0,0,0,0.1886,0.1887,0,0.19,0.19,0.19,0.193,0.193,0.1931,0.1931,0.1931,0.1931,0.1931,0,0,0,0,0,0,0,0,0,0,0,0,0,0.188,0.188,0.1886,0.1887,0.1887,0.19,0.19,0.1901,0.193,0.193,0.1931,0.1931,0.1931,0.1931,0.193,0,0,0,0,0,0,0,0,0,0,0,0,0,0.1888,0.188,0.1886,0.1901,0.1903,0.19,0.19,0.1901,0.1929,0.193,0.1931,0.1931,0.1932,0.1931,0.193,0.1913,0,0,0.1929,0.1928,0,0,0,0,0,0,0,0,0.1888,0.1889,0.1899,0.19,0.1902,0.1912,0.1898,0.1904,0.1929,0.1921,0.1931,0.1932,0.1922,0.1922,0.1926,0.1913,0.1913,0.1928,0.1928,0.1928,0.1928,0,0,0,0,0,0,0,0.1887,0.1888,0.1893,0.1899,0.1901,0.1905,0.1907,0.1899,0.1919,0.1922,0.1924,0.1922,0.1923,0.1926,0.1926,0.1913,0.1928,0.1928,0.1928,0.1927,0.1965,0.1966,0,0,0,0,0,0,0.1882,0.1888,0.1893,0.1894,0.1895,0.1905,0.1907,0.191,0.1919,0.1921,0.1922,0.1924,0.1927,0.1927,0.1926,0.1959,0.1928,0.1927,0.1927,0.1964,0.1965,0.1967,0,0,0,0,0,0,0.1882,0.1882,0.1892,0.189,0.1891,0.1904,0.1907,0.191,0.1944,0.1919,0.1921,0.1956,0.1928,0.1927,0.1957,0.1958,0.1927,0.1926,0.1962,0.1964,0.1966,0.1992,0,0,0,0,0,0,0.1882,0.1882,0.1888,0.1889,0.1891,0.1919,0.1906,0.1909,0.1939,0.1943,0.1948,0.1947,0.1928,0.1958,0.1956,0.1956,0.1926,0.196,0.1963,0.1965,0.1989,0.1994,0.1999,0,0,0,0,0,0.1881,0.1887,0.1888,0.1889,0.1896,0.192,0.1923,0.1934,0.1941,0.1967,0.1974,0.1949,0.1972,0.1959,0.1956,0.1956,0.1959,0.1962,0.1965,0.1987,0.1993,0.1999,0,0,0,0,0,0,0.1879,0.189,0.1891,0.1898,0.192,0.1926,0.1938,0.1954,0.198,0.198,0.197,0.197,0.1992,0.1983,0.1968,0.1978,0.196,0.1962,0.1977,0.1983,0.1988,0.1952,0.1925,0,0,0,0,0,0.188,0.1897,0.1906,0.1917,0.1924,0.1939,0.1951,0.1962,0.1978,0.1992,0.1993,0.1994,0.1997,0.2001,0.1998,0.2008,0.1983,0.2007,0.2012,0.2016,0.1988,0.1948,0.1945,0.1977,0.1977,0.1977,0,0,0.1883,0.189,0.19,0.1919,0.193,0.1941,0.195,0.1974,0.1988,0.1984,0.2007,0.2013,0.2007,0.2016,0.2023,0.2011,0.2009,0.202,0.2023,0.1992,0.195,0.1947,0.1943,0.1979,0.1979,0.1978,0,0,0.1882,0.1903,0.1907,0.1933,0.1953,0.196,0.1977,0.1996,0.2013,0.204,0.2034,0.2041,0.2059,0.2038,0.2034,0.2065,0.2038,0.2083,0.207,0.2033,0.2028,0.2024,0.2043,0.2039,0.2082,0.2082,0.2082,0,0.1876,0.1878,0.1915,0.1927,0.1933,0.1973,0.1971,0.2002,0.2032,0.2018,0.2054,0.2041,0.2055,0.2026,0.2056,0.2068,0.2068,0.2046,0.2035,0.203,0.2024,0.2044,0.204,0.2083,0.2083,0.2083,0.2083,0,0.1877,0.1882,0.1891,0.1912,0.1937,0.1948,0.1982,0.2001,0.2024,0.2028,0.2023,0.2044,0.2024,0.2047,0.2071,0.2042,0.2065,0.2046,0.201,0.2022,0.2044,0.2039,0.2086,0.2085,0.2085,0.2084,0,0,0.1828,0.1873,0.1874,0.1866,0.1922,0.1928,0.1957,0.1953,0.1939,0.1982,0.1952,0.1985,0.1987,0.1983,0.2004,0.1992,0.2004,0.2021,0.2018,0.2023,0.1967,0.1957,0.1952,0.1985,0.1983,0.1982,0.2016,0,0.1796,0.1797,0.1834,0.183,0.1822,0.1867,0.1881,0.1897,0.1918,0.1914,0.1922,0.1922,0.1969,0.1972,0.1966,0.1996,0.1985,0.1999,0.1967,0.1967,0.194,0.1942,0.1807,0.1821,0.2011,0.201,0.201,0,0.1756,0.1761,0.1748,0.1749,0.1748,0.1763,0.1753,0.1778,0.1793,0.1809,0.1804,0.1831,0.1845,0.1881,0.1896,0.1912,0.1937,0.1955,0.1956,0.1917,0.1944,0.1831,0.1805,0.2001,0.2002,0.2003,0.2003,0,0.1669,0.1681,0.1657,0.1673,0.1701,0.1689,0.1705,0.1727,0.1737,0.1749,0.1763,0.1757,0.1795,0.1793,0.1885,0.1886,0.1904,0.1897,0.1897,0.19,0.1758,0.175,0.1859,0.1859,0.1859,0.1859,0.1858,0,0.16,0.1573,0.1616,0.1609,0.1572,0.1624,0.1595,0.1614,0.1648,0.1655,0.1711,0.1726,0.1778,0.1816,0.1855,0.1886,0.1876,0.1882,0.1886,0.1774,0.1767,0.1888,0.1891,0.186,0.186,0.1859,0.1859,0,0.1497,0.1531,0.15,0.1525,0.1533,0.1514,0.1557,0.1547,0.1599,0.162,0.1635,0.1718,0.1776,0.1828,0.1858,0.1866,0.1875,0.1879,0.1784,0.1774,0.1907,0.1911,0.1857,0.1857,0.1856,0.1856,0.1856,0,0.1433,0.1417,0.1439,0.1441,0.1453,0.1452,0.1459,0.1512,0.1531,0.1615,0.1627,0.1703,0.1748,0.1814,0.1824,0.1849,0.1885,0.1733,0.1677,0.1886,0.1897,0.1902,0.1907,0.1534,0.1531,0.1529,0.1527,0,0.1325,0.1348,0.1348,0.1356,0.1366,0.1363,0.1394,0.1404,0.148,0.1518,0.1582,0.1621,0.1703,0.1675,0.1727,0.1718,0.1714,0.1684,0.1885,0.156,0.1584,0.1595,0.1609,0.1506,0.1508,0.1509,0.1511,0.1511,0.1257,0.1242,0.1274,0.1268,0.128,0.1287,0.1271,0.1326,0.1355,0.1412,0.1496,0.1519,0.1561,0.1564,0.1532,0.1508,0.1621,0.1545,0.1551,0.156,0.152,0.1541,0.1452,0.1453,0.1455,0.1456,0.1458,0,0.1185,0.1196,0.1189,0.1194,0.1177,0.1211,0.1231,0.1219,0.1239,0.1311,0.1358,0.1287,0.129,0.1323,0.1257,0.1269,0.1235,0.1214,0.1156,0.1179,0.12,0.1139,0.0971,0.0969,0.0968,0.0966,0,0,0.116,0.1143,0.1142,0.1101,0.1099,0.1066,0.1064,0.1067,0.1099,0.1106,0.1114,0.1236,0.1288,0.1114,0.1104,0.1019,0.1082,0.0978,0.1374,0.1328,0.1346,0.1405,0.134,0,0,0,0,0]},{"header":{"parameterUnit":"m.s-1","parameterCategory":2,"la1":30.2991,"la2":30.254,"lo1":-89.0895,"lo2":-89.0444,"dy":0.0017,"dx":0.0017,"nx":28,"ny":28,"refTime":"2024-05-15T03:00:00:Z","depth":"2","parameterNumber":3,"parameterNumberName":"V-component_of_CURRENTS"},"data":[0,0,0,0,0,0,0,0,0,0,0,0,0,0,0,0,0,0,0,0,0,0,0,0,0,0,0,0,0,0,0,0,0,0,0,0,0,0,0,0,0,0,0,0,0,0,0,0,0,0,0,0,0,0,0,0,0,0,0.0032,0.0032,0,0.0058,0.0058,0.0058,0.0032,0.0031,0.003,0.003,0.0024,0.0025,0.0025,0,0,0,0,0,0,0,0,0,0,0,0,0,-0.0044,-0.0043,0.0032,0.0032,0.0033,0.0058,0.0058,0.0058,0.0032,0.0031,0.003,0.0029,0.0024,0.0025,0.0025,0,0,0,0,0,0,0,0,0,0,0,0,0,-0.0017,-0.0042,0.0032,0.0025,0.0025,0.0058,0.0058,0.0058,0.0032,0.0031,0.003,0.0029,0.0024,0.0025,0.0026,0.0052,0,0,0.0028,0.0028,0,0,0,0,0,0,0,0,-0.0018,-0.0014,0.0026,0.0026,0.0026,0.0043,0.0029,0.0055,0.0032,0.0026,0.003,0.0028,0.0031,0.0031,0.0034,0.0052,0.0052,0.0028,0.0029,0.0029,0.0029,0,0,0,0,0,0,0,-0.002,-0.0016,0.0039,0.0027,0.0027,0.002,0.0022,0.0034,0.0031,0.0027,0.0026,0.0034,0.003,0.0033,0.0034,0.0052,0.0028,0.0029,0.0029,0.003,0.0038,0.0037,0,0,0,0,0,0,-0.0015,-0.0017,0.0038,0.004,0.0004,0.0023,0.0025,0.0036,0.0032,0.0031,0.0035,0.0033,0.0033,0.0033,0.0033,0.0039,0.0029,0.003,0.003,0.0038,0.0037,0.0037,0,0,0,0,0,0,-0.0017,-0.0011,0.0037,0.0014,0.002,0.0025,0.0038,0.0037,0.0024,0.0039,0.0037,0.002,0.0032,0.0032,0.0031,0.0039,0.003,0.0031,0.0038,0.0038,0.0037,0.0066,0,0,0,0,0,0,-0.0019,-0.0011,-0.0007,0.0015,0.0022,0.005,0.0039,0.0039,0.0033,0.003,0.0026,0.0025,0.0031,0.003,0.0032,0.004,0.0031,0.0038,0.0038,0.0037,0.0066,0.0067,0.0068,0,0,0,0,0,-0.0022,0.0002,-0.0007,-0.0,0.003,0.0051,0.0053,0.0051,0.0033,0.0032,0.0025,0.0024,0.0028,0.0031,0.0033,0.0042,0.0039,0.0038,0.0037,0.0065,0.0067,0.0068,0,0,0,0,0,0,-0.0025,0.0003,-0.0007,0.0024,0.0029,0.0047,0.0056,0.0043,0.0037,0.0034,0.0028,0.0028,0.003,0.0027,0.003,0.0039,0.0031,0.003,0.0051,0.0052,0.0053,0.0062,0.0032,0,0,0,0,0,-0.0024,-0.0005,0.0012,0.003,0.0038,0.0038,0.0044,0.0042,0.0045,0.004,0.0036,0.0032,0.0034,0.0034,0.0039,0.0047,0.0038,0.005,0.0051,0.0052,0.0058,0.0039,0.0039,0.0035,0.0035,0.0035,0,0,-0.002,-0.0004,0.0006,0.0029,0.0036,0.0056,0.0038,0.0053,0.006,0.0043,0.0048,0.004,0.0036,0.0047,0.0047,0.0043,0.0049,0.0051,0.0053,0.0058,0.0038,0.0039,0.0039,0.0035,0.0035,0.0035,0,0,0.0007,0.001,0.0038,0.0042,0.0057,0.0065,0.0063,0.0074,0.0069,0.0073,0.0062,0.0052,0.0056,0.0057,0.0057,0.0064,0.0056,0.0061,0.0078,0.0059,0.0059,0.0059,0.0055,0.0054,0.0061,0.0061,0.0062,0,0.001,0.0044,0.0046,0.0067,0.0078,0.0066,0.0091,0.0091,0.0094,0.0094,0.0076,0.0069,0.0063,0.0072,0.0074,0.0069,0.006,0.0077,0.0062,0.0061,0.0061,0.0056,0.0055,0.0063,0.0063,0.0063,0.0062,0,0.0054,0.0074,0.0091,0.0113,0.0121,0.0143,0.0146,0.0146,0.0132,0.0128,0.0122,0.0107,0.01,0.0094,0.0089,0.0088,0.0083,0.0067,0.0062,0.0064,0.0058,0.0057,0.0065,0.0064,0.0064,0.0063,0,0,0.0087,0.0119,0.0122,0.0133,0.0148,0.0161,0.0176,0.0191,0.0194,0.0177,0.0177,0.0166,0.0144,0.0141,0.0125,0.0107,0.0098,0.009,0.0088,0.0093,0.0066,0.0063,0.0061,0.0078,0.0078,0.0078,0.0066,0,0.0121,0.0169,0.0177,0.021,0.0235,0.0226,0.0238,0.024,0.0231,0.0228,0.0198,0.0193,0.0166,0.0159,0.0137,0.0111,0.0094,0.0103,0.0057,0.0056,0.0059,0.0059,0.0072,0.0062,0.0064,0.0064,0.0064,0,0.0162,0.0189,0.0235,0.0256,0.0266,0.0282,0.0295,0.0304,0.0295,0.0285,0.0267,0.024,0.0221,0.0186,0.0141,0.0148,0.0112,0.0083,0.0082,0.0069,0.005,0.0058,0.0059,0.0062,0.0062,0.0062,0.0062,0,0.018,0.0225,0.0263,0.0269,0.0296,0.0312,0.0323,0.0322,0.0335,0.0321,0.0325,0.0285,0.0274,0.0217,0.0158,0.0149,0.0104,0.0081,0.0044,0.0044,0.0041,0.0041,0.0042,0.0042,0.0042,0.0042,0.0042,0,0.0214,0.0242,0.0274,0.0292,0.0331,0.0334,0.0368,0.0368,0.0377,0.0402,0.0356,0.0365,0.0279,0.0241,0.0176,0.0114,0.0116,0.0053,0.0039,0.0051,0.0052,0.0038,0.0038,0.0041,0.0041,0.0042,0.0042,0,0.023,0.0253,0.0294,0.033,0.0344,0.0366,0.0407,0.0429,0.0431,0.0464,0.0464,0.043,0.0385,0.0299,0.0214,0.0149,0.008,0.0055,0.0084,0.0073,0.003,0.0031,0.0014,0.0014,0.0014,0.0014,0.0014,0,0.0246,0.0271,0.0316,0.0345,0.0368,0.0406,0.0438,0.0455,0.0487,0.0512,0.0534,0.0497,0.0486,0.036,0.0236,0.0124,0.0096,0.0053,0.003,0.0038,0.0026,0.0028,0.0029,0.004,0.004,0.004,0.004,0,0.0277,0.0288,0.0321,0.0376,0.0419,0.0468,0.0518,0.0552,0.0583,0.0613,0.0648,0.0638,0.0527,0.0416,0.0255,0.0171,0.0069,0.0051,0.005,0.0044,0.0061,0.005,0.0051,0.0041,0.0041,0.0041,0.0041,0.0041,0.0296,0.0319,0.036,0.0412,0.0464,0.0528,0.0573,0.063,0.0689,0.075,0.0736,0.0736,0.0598,0.0404,0.025,0.0083,0.0091,0.0025,0.0026,0.0026,0.003,0.0045,0.0024,0.0024,0.0024,0.0024,0.0024,0,0.0322,0.035,0.0397,0.0461,0.0518,0.0542,0.0628,0.0678,0.0756,0.0818,0.0851,0.073,0.06,0.0436,0.0202,0.0057,0.0036,-0.0001,0.0009,0.001,0.001,0.0013,0.0003,0.0002,0.0002,0.0001,0,0,0.0339,0.0383,0.0404,0.0498,0.0546,0.0628,0.068,0.0755,0.0819,0.0883,0.0895,0.0882,0.0677,0.0501,0.0297,0.0157,0.0115,0.012,0.0155,0.0192,0.0194,0.0044,0.0052,0,0,0,0,0]}],[{"header":{"parameterUnit":"m.s-1","parameterCategory":2,"la1":30.2991,"la2":30.254,"lo1":-89.0895,"lo2":-89.0444,"dy":0.0017,"dx":0.0017,"nx":28,"ny":28,"refTime":"2024-05-15T03:00:00:Z","depth":"4","parameterNumber":2,"parameterNumberName":"U-component_of_CURRENTS"},"data":[0,0,0,0,0,0,0,0,0,0,0,0,0,0,0,0,0,0,0,0,0,0,0,0,0,0,0,0,0,0,0,0,0,0,0,0,0,0,0,0,0,0,0,0,0,0,0,0,0,0,0,0,0,0,0,0,0,0,0.0798,0.0798,0,0.0849,0.0849,0.085,0.0902,0.0902,0.0903,0.0904,0.0961,0.0962,0.0963,0,0,0,0,0,0,0,0,0,0,0,0,0,0.0771,0.0771,0.0798,0.0798,0.0799,0.0848,0.0849,0.085,0.0901,0.0902,0.0903,0.0904,0.0961,0.0962,0.0963,0,0,0,0,0,0,0,0,0,0,0,0,0,0.0798,0.0771,0.0798,0.083,0.0834,0.0848,0.0849,0.085,0.0901,0.0902,0.0903,0.0904,0.096,0.0962,0.0963,0.0951,0,0,0.0967,0.0968,0,0,0,0,0,0,0,0,0.0796,0.0799,0.0825,0.0828,0.0832,0.0869,0.0861,0.0884,0.0901,0.0876,0.0904,0.0905,0.093,0.0934,0.0942,0.0954,0.0957,0.0967,0.0968,0.0969,0.0969,0,0,0,0,0,0,0,0.0794,0.0797,0.0818,0.0825,0.083,0.0851,0.0856,0.0866,0.0897,0.0878,0.0882,0.0887,0.0932,0.094,0.0943,0.0957,0.0967,0.0969,0.0969,0.097,0.1082,0.1084,0,0,0,0,0,0,0.0785,0.0795,0.0817,0.082,0.0816,0.0851,0.0856,0.0857,0.0897,0.0904,0.0886,0.0889,0.0937,0.0942,0.0946,0.102,0.0969,0.097,0.0971,0.108,0.1082,0.1085,0,0,0,0,0,0,0.0784,0.0786,0.0815,0.0809,0.0814,0.085,0.085,0.0857,0.0887,0.0903,0.091,0.0912,0.0938,0.0944,0.0995,0.1019,0.0971,0.0972,0.1077,0.1081,0.1084,0.1114,0,0,0,0,0,0,0.0783,0.0785,0.0793,0.0808,0.0814,0.0834,0.0849,0.0857,0.0887,0.0893,0.0926,0.0932,0.094,0.0993,0.0996,0.102,0.0973,0.1074,0.1079,0.1083,0.111,0.1117,0.1124,0,0,0,0,0,0.0782,0.0786,0.0793,0.0796,0.0819,0.0835,0.084,0.0869,0.0888,0.0901,0.0944,0.0932,0.1021,0.0996,0.0999,0.1024,0.1073,0.1077,0.1082,0.1107,0.1116,0.1124,0,0,0,0,0,0,0.0777,0.0792,0.08,0.0808,0.0825,0.0844,0.0865,0.0879,0.0921,0.0939,0.0954,0.0963,0.1021,0.1022,0.0993,0.1073,0.1046,0.1052,0.1064,0.1073,0.1079,0.1088,0.0974,0,0,0,0,0,0.0777,0.0786,0.0801,0.0808,0.0822,0.0846,0.0861,0.0879,0.0911,0.0932,0.096,0.0999,0.1038,0.1055,0.1088,0.1119,0.1117,0.1142,0.1149,0.1155,0.1168,0.1183,0.1192,0.1101,0.1101,0.11,0,0,0.0772,0.0786,0.0788,0.0809,0.083,0.0854,0.0859,0.0888,0.0918,0.093,0.0995,0.1026,0.1056,0.1108,0.1132,0.1112,0.1182,0.1161,0.1166,0.1175,0.1189,0.1198,0.1205,0.1104,0.1103,0.1103,0,0,0.0772,0.0787,0.0799,0.0818,0.0851,0.0871,0.0882,0.0917,0.0949,0.1002,0.1031,0.1083,0.113,0.1163,0.1182,0.1246,0.1224,0.1256,0.1288,0.1303,0.131,0.1316,0.1323,0.1329,0.1251,0.1251,0.1252,0,0.0776,0.0788,0.0805,0.0828,0.0852,0.0882,0.0908,0.094,0.099,0.1024,0.1032,0.1135,0.1159,0.1223,0.1257,0.126,0.1262,0.1246,0.1309,0.1315,0.132,0.1326,0.1333,0.1254,0.1253,0.1253,0.1253,0,0.0785,0.0803,0.0817,0.0859,0.0884,0.0912,0.0955,0.0999,0.1044,0.1075,0.1157,0.1196,0.1256,0.1272,0.1288,0.1347,0.1334,0.1317,0.1278,0.1331,0.1334,0.1341,0.1256,0.1256,0.1255,0.1255,0,0,0.0785,0.0818,0.0829,0.0852,0.0907,0.0931,0.0993,0.1055,0.1104,0.116,0.1218,0.1299,0.1322,0.1349,0.1368,0.1386,0.1431,0.1375,0.1375,0.1367,0.1461,0.1361,0.1358,0.1419,0.142,0.1421,0.1446,0,0.08,0.084,0.0857,0.0908,0.0934,0.0983,0.1036,0.1097,0.1153,0.1216,0.1268,0.133,0.1348,0.1379,0.1407,0.1429,0.1451,0.1426,0.1426,0.1427,0.1317,0.1363,0.1426,0.145,0.1452,0.1453,0.1453,0,0.0811,0.0839,0.0886,0.0938,0.0958,0.1001,0.1101,0.1147,0.1233,0.1274,0.134,0.1372,0.1437,0.1428,0.1491,0.1473,0.1484,0.1488,0.1488,0.1389,0.1338,0.139,0.1464,0.1464,0.1463,0.1462,0.1461,0,0.0811,0.0861,0.0904,0.0924,0.099,0.1039,0.1091,0.1178,0.1224,0.1312,0.1348,0.1418,0.1459,0.1485,0.1517,0.1506,0.156,0.1534,0.1454,0.1447,0.1514,0.1507,0.1576,0.1576,0.1576,0.1575,0.1575,0,0.0816,0.085,0.0913,0.0939,0.1002,0.1051,0.113,0.1189,0.1265,0.1311,0.138,0.1415,0.1477,0.1513,0.1527,0.1512,0.157,0.1472,0.145,0.1527,0.1522,0.1517,0.151,0.1576,0.1576,0.1576,0.1576,0,0.0798,0.0839,0.0888,0.0971,0.1,0.1052,0.1138,0.1183,0.1265,0.1323,0.1349,0.1429,0.1468,0.1512,0.1551,0.1514,0.151,0.1492,0.1581,0.1561,0.1383,0.1378,0.1391,0.1388,0.1385,0.1383,0.1381,0,0.0787,0.0813,0.0906,0.0936,0.0978,0.1052,0.1094,0.118,0.1217,0.1317,0.1333,0.1401,0.1443,0.1419,0.1471,0.1475,0.1465,0.1449,0.1414,0.1389,0.1366,0.1365,0.1364,0.1376,0.1376,0.1375,0.1374,0,0.0766,0.0813,0.0856,0.0916,0.0971,0.1015,0.1083,0.11,0.1188,0.1263,0.128,0.1294,0.1334,0.1353,0.1371,0.1374,0.1446,0.1419,0.1425,0.1392,0.1371,0.1351,0.1353,0.1365,0.1366,0.1367,0.1368,0,0.0756,0.0777,0.0838,0.0883,0.0937,0.0962,0.1006,0.104,0.1082,0.1181,0.1182,0.1252,0.1317,0.1302,0.1319,0.1311,0.1287,0.1238,0.1253,0.1264,0.1211,0.1164,0.1083,0,0,0,0,0,0.0737,0.075,0.0792,0.0836,0.0882,0.0913,0.0984,0.1026,0.1104,0.1083,0.1128,0.1153,0.1164,0.1202,0.1168,0.1269,0.13,0.1224,0.1254,0.1312,0.1323,0.1272,0,0,0,0,0,0,0.0724,0.0762,0.0774,0.0781,0.0795,0.0839,0.088,0.0937,0.0931,0.101,0.1025,0.1076,0.1111,0.1167,0.1143,0.1154,0.1147,0.1267,0.1263,0.1305,0.1315,0.1324,0.1276,0,0,0,0,0]},{"header":{"parameterUnit":"m.s-1","parameterCategory":2,"la1":30.2991,"la2":30.254,"lo1":-89.0895,"lo2":-89.0444,"dy":0.0017,"dx":0.0017,"nx":28,"ny":28,"refTime":"2024-05-15T03:00:00:Z","depth":"4","parameterNumber":3,"parameterNumberName":"V-component_of_CURRENTS"},"data":[0,0,0,0,0,0,0,0,0,0,0,0,0,0,0,0,0,0,0,0,0,0,0,0,0,0,0,0,0,0,0,0,0,0,0,0,0,0,0,0,0,0,0,0,0,0,0,0,0,0,0,0,0,0,0,0,0,0,0.0364,0.0364,0,0.0371,0.0372,0.0372,0.0349,0.0349,0.0348,0.0347,0.033,0.033,0.033,0,0,0,0,0,0,0,0,0,0,0,0,0,0.0297,0.0298,0.0364,0.0364,0.0364,0.0371,0.0372,0.0372,0.0349,0.0349,0.0348,0.0347,0.033,0.033,0.033,0,0,0,0,0,0,0,0,0,0,0,0,0,0.0317,0.0299,0.0364,0.0354,0.0353,0.0371,0.0372,0.0372,0.035,0.0349,0.0348,0.0347,0.033,0.033,0.033,0.0352,0,0,0.0331,0.0331,0,0,0,0,0,0,0,0,0.0316,0.032,0.0356,0.0355,0.0354,0.0359,0.0341,0.0364,0.035,0.0351,0.0347,0.0346,0.0338,0.0338,0.0341,0.0351,0.035,0.0331,0.0331,0.0331,0.0331,0,0,0,0,0,0,0,0.0315,0.0319,0.0367,0.0356,0.0355,0.0338,0.034,0.0346,0.0349,0.0351,0.0349,0.0351,0.0337,0.0341,0.0341,0.035,0.0331,0.0331,0.0331,0.0331,0.0317,0.0317,0,0,0,0,0,0,0.0318,0.0318,0.0366,0.0367,0.0333,0.034,0.0342,0.0358,0.035,0.0348,0.0352,0.035,0.0341,0.034,0.034,0.0335,0.0331,0.0332,0.0332,0.0318,0.0317,0.0316,0,0,0,0,0,0,0.0316,0.0323,0.0366,0.0342,0.0346,0.0343,0.036,0.0359,0.036,0.0351,0.0348,0.0354,0.034,0.034,0.0342,0.0335,0.0332,0.0332,0.0318,0.0317,0.0317,0.0343,0,0,0,0,0,0,0.0315,0.0322,0.0336,0.0343,0.0348,0.0382,0.0361,0.036,0.0363,0.0361,0.0352,0.035,0.034,0.0342,0.0342,0.0335,0.0332,0.0319,0.0318,0.0317,0.0343,0.0343,0.0344,0,0,0,0,0,0.0313,0.0344,0.0337,0.0342,0.0366,0.0383,0.0384,0.0377,0.0364,0.0373,0.0361,0.035,0.0335,0.0343,0.0343,0.0335,0.0319,0.0318,0.0317,0.0343,0.0343,0.0344,0,0,0,0,0,0,0.0324,0.0345,0.0337,0.0373,0.0375,0.0379,0.039,0.0381,0.038,0.0376,0.0359,0.0357,0.0351,0.0341,0.035,0.0325,0.0319,0.0318,0.0338,0.0339,0.0339,0.0313,0.0332,0,0,0,0,0,0.0332,0.036,0.0365,0.0393,0.0395,0.0391,0.0396,0.0392,0.0391,0.0389,0.038,0.0363,0.0348,0.0343,0.0334,0.0335,0.0311,0.0323,0.0324,0.0324,0.0301,0.0262,0.0257,0.0313,0.0313,0.0313,0,0,0.0346,0.0358,0.0375,0.0396,0.0397,0.0402,0.0392,0.0407,0.0401,0.0389,0.0383,0.0372,0.0348,0.0341,0.0336,0.0333,0.0302,0.0323,0.0324,0.0299,0.026,0.0255,0.025,0.0312,0.0312,0.0312,0,0,0.0373,0.0395,0.0415,0.0419,0.0424,0.0422,0.0426,0.0429,0.042,0.0422,0.0397,0.0375,0.0374,0.0339,0.0323,0.0319,0.0307,0.0324,0.0307,0.0271,0.0266,0.0261,0.0252,0.0246,0.0323,0.0323,0.0323,0,0.0381,0.0402,0.0422,0.0429,0.0425,0.0429,0.0428,0.043,0.043,0.0412,0.0421,0.0372,0.036,0.0315,0.0311,0.0318,0.031,0.0313,0.0271,0.0266,0.026,0.0252,0.0245,0.0324,0.0324,0.0324,0.0324,0,0.0404,0.0418,0.0432,0.0436,0.0442,0.045,0.0445,0.0444,0.0435,0.0421,0.0387,0.037,0.033,0.0327,0.0321,0.0271,0.0286,0.0281,0.0273,0.0256,0.0249,0.0242,0.0326,0.0325,0.0325,0.0325,0,0,0.0409,0.044,0.0438,0.0431,0.044,0.0444,0.0438,0.0417,0.0398,0.0392,0.0356,0.0321,0.0307,0.0285,0.0272,0.0238,0.0209,0.0248,0.0246,0.0244,0.0155,0.0162,0.0155,0.0209,0.0207,0.0206,0.0177,0,0.0404,0.0416,0.0431,0.0429,0.0426,0.0425,0.0416,0.0402,0.0391,0.0368,0.0327,0.0305,0.0295,0.0285,0.0245,0.0222,0.0185,0.0218,0.0165,0.0163,0.0175,0.0144,0.02,0.0171,0.0169,0.0168,0.0167,0,0.0393,0.0403,0.0406,0.0405,0.0402,0.0407,0.0377,0.0374,0.0345,0.0337,0.0299,0.0285,0.0233,0.0236,0.016,0.0191,0.0163,0.0142,0.0141,0.0123,0.0154,0.0181,0.0153,0.0154,0.0155,0.0156,0.0157,0,0.0358,0.0372,0.0371,0.0373,0.0385,0.0377,0.0378,0.0358,0.0356,0.0323,0.0325,0.0258,0.0247,0.0186,0.0151,0.0159,0.0079,0.0086,0.0057,0.006,0.0053,0.0058,0.0007,0.0007,0.0007,0.0007,0.0007,0,0.033,0.0326,0.036,0.0361,0.0357,0.0364,0.0359,0.0349,0.0344,0.0348,0.0314,0.0305,0.0236,0.0194,0.0144,0.0084,0.0071,0.0035,0.0037,0.007,0.0077,0.005,0.0055,0.0006,0.0006,0.0007,0.0007,0,0.0292,0.0314,0.0319,0.0338,0.0348,0.0347,0.0379,0.0378,0.0375,0.0382,0.0381,0.0345,0.0294,0.0224,0.0137,0.0091,0.0022,-0.0,0.0055,0.0065,0.0031,0.0038,-0.0041,-0.0041,-0.0041,-0.0041,-0.0042,0,0.0276,0.0279,0.0311,0.0331,0.0348,0.0364,0.0383,0.0392,0.0408,0.0411,0.0418,0.0375,0.0344,0.023,0.0148,0.004,0.0021,-0.0013,-0.0023,0.0008,0.0019,0.0027,0.0034,-0.0042,-0.0042,-0.0042,-0.0042,0,0.0251,0.0269,0.0285,0.0326,0.0357,0.0388,0.0421,0.0434,0.0453,0.0454,0.0449,0.039,0.0332,0.0237,0.0154,0.0075,0.0007,-0.0016,-0.0017,-0.0027,0.0006,0.0018,0.0026,-0.0043,-0.0043,-0.0043,-0.0043,0,0.0242,0.0252,0.0288,0.0322,0.0365,0.0407,0.042,0.0451,0.0466,0.0476,0.0474,0.041,0.0375,0.0256,0.0179,0.01,0.0075,0.0043,0.0039,0.0039,0.0065,0.0118,0.0088,0,0,0,0,0,0.0234,0.0255,0.0286,0.0329,0.0373,0.0402,0.0448,0.0463,0.0487,0.0488,0.0483,0.0431,0.032,0.027,0.0191,0.0162,0.0054,0.0065,0.0013,-0.0049,-0.0047,-0.0031,0,0,0,0,0,0,0.0233,0.0262,0.0281,0.0335,0.0367,0.0418,0.045,0.0466,0.0469,0.0479,0.0422,0.0404,0.0294,0.0365,0.0188,0.0164,0.0117,0.0017,0.0015,-0.0049,-0.0048,-0.0047,-0.003,0,0,0,0,0]}]]